Terug naar catalogus

TITAN 3C TRANSTAGE DEB

ActiefHEO
NORAD 27793·DEBRIS·🇺🇸 United States

Gelanceerd Dec 21, 1965 vanaf Cape Canaveral Space Force Station

Loading…

Volgende Passages (komende 24 uur)

TLE

VersSource: Space-Track

Epoch: Sep 11, 2026, 13:00 UTC

1 27793U 65108BH  26254.54194269  .00002884  00000-0  92711-2 0  9991
2 27793  26.5546   6.0239 6522003 147.4576 278.9568  3.14060135139113

Volg TITAN 3C TRANSTAGE DEB in realtime met AllMySat

Download on the App Store